Location: Newark
(50.0336°N, 22.0047°E)
Time: 16:06:59
(UTC+00:00)

N. Korean satellite - Pass Details

Date: 02 February 2020
Orbit: 456 x 506 km, 97.2° (Epoch: 17 February)

Event Time Altitude Azimuth Distance (km) Brightness Sun altitude
Rises 05:23:32 0° 2° (N) 2,564 10.1 -7.0°
Reaches altitude 10° 05:25:51 10° 348° (NNW) 1,687 9.0 -6.7°
Maximum altitude 05:28:47 24° 294° (WNW) 1,073 7.7 -6.2°
Drops below altitude 10° 05:31:45 10° 240° (WSW) 1,697 8.9 -5.8°
Sets 05:34:06 0° 226° (SW) 2,583 10.0 -5.4°
